Weather in Gosford

Australia     33°25′01″S   151°20′38″E
temp.,
°C
wind,
m/s
gust,
m/s
humid.,
%
clouds,
%
prec.,
mm/h
press.,
hPa
HPBL,
m
16 may, sun
sun1601:00+8wsw4115844 0.0 1020554
04:00+7wsw311613 0.0 1020404
07:00+5w25720 0.0 1021138
10:00+12wsw35460 0.0 1022614
13:00+16w23310 0.0 10191290
16:00+15e11390 0.0 101898
19:00+9wnw11510 0.0 102030
22:00+7wnw24660 0.0 102184
17 may, mon
mon1701:00+6wnw24730 0.0 102094
04:00+6wnw24750 0.0 1020113
07:00+6wnw23740 0.0 1022103
10:00+14sw36504 0.0 1023702
13:00+17s344419 0.0 10231743
16:00+15se34556 0.0 1023531
19:00+11sse117059 0.0 1026143
22:00+11wnw117185 0.0 102755
18 may, tue
tue1801:00+11w117475 0.0 102747
04:00+10w117599 0.0 102743
07:00+11w1173100 0.0 102940
10:00+14w116293 0.0 1030258
13:00+18ene234714 0.0 10271540
16:00+15e356411 0.0 1026465
19:00+11ne23840 0.0 1028114
22:00+10nw22900 0.0 102940
19 may, wed
wed1901:00+9wnw11920 0.0 102832
04:00+8wnw11940 0.0 102832
07:00+8wnw11920 0.0 102937
10:00+16nw12550 0.0 1029420
13:00+19ne13410 0.0 10261366
16:00+17e35640 0.0 1026293
19:00+12nne23880 0.0 102778
22:00+11nw11920 0.0 102834
20 may, thu
thu2001:00+10wnw11910 0.0 102732
04:00+9wnw22905 0.0 102642
07:00+8nw2280100 0.0 102753
10:00+16nw255196 0.0 1026351
13:00+19wnw2438100 0.0 10241192
16:00+17sse115274 0.0 102446
19:00+13ssw125766 0.0 102677
22:00+10wsw23725 0.0 102757